Regional Weather Roundup
Issued by NWS Sioux Falls, SD

Home | Current Version | Previous Version | Text Only | Print | Product List | Glossary On
Versions: 1 2 3 4 5 6 7 8 9 10 11 12 13 14 15 16 17 18 19 20 21 22 23 24 25 26 27 28 29 30 31 32 33 34 35 36 37 38 39 40 41 42 43 44 45 46 47 48 49 50
000
ASUS43 KFSD 091502
RWRFSD

WEATHER ROUNDUP FOR SE SOUTH DAKOTA/SW MINNESOTA/NW IOWA
NATIONAL WEATHER SERVICE SIOUX FALLS SD
900 AM CST FRI DEC 09 2016

NOTE: "FAIR" INDICATES FEW OR NO CLOUDS BELOW 12,000 FEET WITH NO
SIGNIFICANT WEATHER AND OR OBSTRUCTIONS TO VISIBILITY.


SDZ038>040-050-052>070-091600-
SOUTHEAST SOUTH DAKOTA

CITY           SKY/WX    TMP DP  RH WIND       PRES   REMARKS
CHAMBERLAIN    CLOUDY     5   0  81 E7        30.52F WCI  -7
HURON          CLOUDY     1  -4  79 N5        30.59S WCI  -9
MADISON        CLOUDY     0   0 100 CALM      30.53S
MITCHELL       CLOUDY     2  -3  80 CALM      30.60S
SIOUX FALLS    CLOUDY     3  -1  83 CALM      30.57R
WINNER         CLOUDY     6   1  80 SE12      30.45F WCI  -9
YANKTON        PTCLDY     3  -2  78 CALM      30.58F
$$

MNZ071-072-080-081-089-090-097-098-091600-
SOUTHWEST MINNESOTA

CITY           SKY/WX    TMP DP  RH WIND       PRES   REMARKS
FAIRMONT       CLOUDY     5   1  83 NW9       30.59R WCI  -9
JACKSON        CLOUDY     5   0  78 NW5       30.55S WCI  -4
LUVERNE        CLOUDY     3  -2  78 W6        30.58R WCI  -8
MARSHALL       CLOUDY     1  -4  79 NW6       30.59R WCI -10
MONTEVIDEO     CLOUDY     1   0  92 NW6       30.60R WCI -10
PIPESTONE      CLOUDY     1  -2  85 NW6       30.52S WCI -10
REDWOOD FALLS  MOCLDY     3  -3  76 W8        30.59R WCI -10
TRACY          CLOUDY     4  -1  81 NW7       30.57S WCI  -8
WINDOM         CLOUDY     3   0  85 CALM      30.55S
WORTHINGTON    PTCLDY     3  -1  83 W5        30.55R WCI  -6
$$

IAZ001>003-012>014-020>022-031-032-NEZ013-014-SDZ071-091600-
NORTHWEST IOWA

CITY           SKY/WX    TMP DP  RH WIND       PRES   REMARKS
CHEROKEE       CLOUDY     5   2  88 W3        30.60R
DENISON        MOSUNNY    7   5  92 CALM      30.58F
ESTHERVILLE    SUNNY      5   2  87 NW5       30.56R WCI  -4
LE MARS        CLOUDY     5   1  85 NW5       30.62R WCI  -4
ORANGE CITY    CLOUDY     3   1  92 CALM      30.57R
SHELDON        CLOUDY     3   1  92 CALM      30.56R
SIOUX CITY     CLOUDY     8   2  76 NW5       30.63R WCI   0
SPENCER        MOSUNNY    5   1  83 W14       30.58R WCI -12
STORM LAKE     CLOUDY     5   1  85 W3        30.57R
$$

ABBREVIATIONS USED IN REMARKS
   TC - TEMPERATURE IN CELSIUS
  WCI - WIND CHILL INDEX
   HX - HEAT INDEX
  VSB - VISIBILITY





USA.gov is the U.S. government's official web portal to all federal, state and local government web resources and services.